カタログに戻る

ATLAS 5 CENTAUR DEB

LostHEO
NORAD 43989·DEBRIS·🇺🇸 United States

打ち上げ Sep 17, 2014 から Cape Canaveral Space Force Station

Loading…

次のパス (今後24時間)

TLE

古いSource: Space-Track

元期: Apr 6, 2023, 15:32 UTC

1 43989U 14055AU  23096.64776325 -.00000127  00000-0  00000+0 0  9998
2 43989  20.8204 255.6421 4697390 321.1129  12.8266  1.82959316 30140

AllMySatでATLAS 5 CENTAUR DEBをリアルタイム追跡

Download on the App Store